SCP
0 0 0 0 0 0 0 0 0 0 0 0 0 0 0 0 0 0 0 0 0 0 0 0 0 0 0 0 0 0 0 0 0 0 0 0 0 0 0 0 0 0 0 0
0 0 0 0 0 0 0 0 0 0 0 0 0 0 0 0 0 0 0 0 0 0 0 0 0 0 0 0 0 0 0 0 0 0 0 0 0 0 0 0 0 0 0 0
0 0 0 0 0 0 0 0 0 0 0 0 0 0 0 0 0 0 0 0 0 0 0 0 0 0 0 0 0 0 0 0 0 0 0 0 0 0 0 0 0 0 0 0
0 0 0 0 0 0 0 0 0 0 0 0 0 0 0 0 0 0 0 0 0 0 0 0 0 0 0 0 0 0 0 0 0 0 0 0 0 0 0 0 0 0 0 0
0 0 0 0 0 0 0 0 0 0 0 0 0 0 0 0 0 0 0 0 0 0 0 0 0 0 0 0 0 0 0 0 0 0 0 0 0 0 0 0 0 0 0 0
0 0 0 0 0 0 0 0 0 0 0 0 0 0 0 0 0 0 0 0 0 0 -0 0 0 0 0 0 0 0 0 0 0 0 0 0 0 0 0 0 0 0 0 0
0 0 0 0 0 0 0 0 0 0 0 0 0 0 0 0 0 0 0 0 0 0 0 0 0 0 0 0 0 0 0 0 0 0 0 0 0 0 0 0 0 0 0 0
0 0 0 0 0 0 0 0 0 0 0 0 0 0 0 0 0 0 0 0 0 0 0 0 0 0 0 0 0 0 0 0 0 0 0 0 0 0 0 0 0 0 0 0
0 0 0 0 0 0 0 0 0 0 0 0 0 0 0 0 0 0 0 0 0 0 0 0 0 0 0 0 0 0 0 0 0 0 0 0 0 0 0 0 0 0 0 0
0 0 0 0 0 0 0 0 0 0 0 0 0 0 0 0 0 0 0 0 0 0 0 0 0 0 0 0 0 0 0 0 0 0 0 0 0 0 0 0 0 0 0 0
0 0 0 0 0 0 0 0 0 0 0 0 0 0 0 0 0 0 0 0 0 0 0 0 0 0 0 0 0 0 0 0 0 0 0 0 0 0 0 0 0 0 0 0
0 0 0 0 0 0 0 0 0 0 0 0 0 0 0 0 0 0 0 0 0 0 0 0 0 0 0 0 0 0 0 0 0 0 0 0 0 0 0 0 0 0 0 0
0 0 0 0 0 0 0 0 0 -0 -0 0 0 0 0 0 0 0 0 0 0 0 0 0 0 0 0 0 0 0 0 0 0 0 0 0 0 0 0 0 0 0 0 0
0 0 0 0 0 0 0 0 0 0 0 0 0 0 0 0 0 0 0 0 0 0 0 0 0 0 0 0 0 0 0 0 0 0 0 0 0 0 0 0 0 0 0 0
0 0 0 0 0 0 0 0 0 0 0 0 0 0 0 0 0 0 0 0 0 0 0 0 0 0 0 0 0 0 0 0 0 0 0 0 0 0 0 0 0 0 0 0
0 0 0 0 0 0 0 0 0 0 0 0 0 0 0 0 0 0 0 0 0 0 0 0 0 0 0 0 0 0 0 0 0 0 0 0 0 0 0 0 0 0 0 0
0 0 0 0 0 0 0 0 0 0 0 0 0 0 0 0 0 0 0 0 0 0 0 0 0 0 0 0 0 0 0 0 0 0 0 0 0 0 0 0 0 0 0 0
0 0 0 0 0 0 0 0 0 0 0 0 0 0 0 0 0 0 0 0 0 0 0 0 0 0 0 0 0 0 0 0 0 0 0 0 0 0 0 0 0 0 0 0
0 0 0 0 0 0 0 0 -0 -0 -0 -0 0 0 0 0 0 0 0 0 0 0 0 0 0 0 0 0 0 0 0 0 0 0 0 0 0 0 0 0 0 0 0 0
0 0 0 0 0 0 0 0 -0 -0 -0 -0 0 0 0 0 0 0 0 0 0 0 0 0 0 0 0 0 0 0 0 0 0 0 0 0 0 0 0 0 0 0 0 0
-0 0 0 0 0 0 0 0 0 0 0 0 0 0 0 0 0 0 0 0 0 0 0 0 0 0 0 0 0 0 0 0 0 0 0 0 0 0 0 0 0 0 0 0
0 0 0 0 0 0 0 0 0 0 0 0 0 0 0 0 0 0 0 0 0 0 0 0 0 0 0 0 0 0 0 0 0 0 0 0 0 0 0 0 0 0 0 0
0 0 0 0 0 0 0 0 0 0 0 0 0 0 0 0 0 0 0 0 0 0 0 0 0 0 0 0 0 0 0 0 0 0 0 0 0 0 0 0 0 0 0 0
0 0 0 0 0 0 0 0 0 0 0 0 0 0 0 0 0 0 0 0 0 0 0 0 0 0 0 0 0 0 0 0 0 0 0 0 0 0 0 0 0 0 0 0
-0 -0 0 0 0 0 0 0 0 0 0 0 0 0 0 0 0 0 0 0 0 0 0 0 0 0 0 0 0 0 0 0 0 0 0 0 0 0 0 0 0 0 0 0
-0 -0 0 0 0 0 0 0 0 0 0 0 0 0 0 0 0 0 0 0 0 0 0 0 0 0 0 0 0 0 0 0 0 0 0 0 0 0 0 0 0 0 0 0
0 0 0 0 0 0 0 0 0 0 0 0 0 0 0 0 0 0 0 0 0 0 0 0 0 0 0 0 0 0 0 0 0 0 0 0 0 0 0 0 0 0 0 0
Wind_Speed
8 7 7 10 10 11 12 12 10 9 10 11 7 6 5 5 5 6 6 5 5 5 4 4 3 3 2 2 1 2 2 3 3 3 3 3 3 3 3 3 4 4 4 5
5 5 7 11 15 15 15 14 15 15 15 10 7 5 6 6 6 7 7 6 6 6 5 5 4 4 3 2 2 2 3 3 2 3 3 3 3 3 3 4 4 4 5 5
5 3 7 11 11 13 10 11 11 14 11 4 5 6 6 6 7 8 7 7 6 6 6 5 4 4 4 3 2 3 3 3 2 3 3 3 3 4 4 4 4 5 5 5
4 4 9 3 2 5 9 11 13 12 10 7 7 6 6 6 7 7 7 6 6 5 5 4 4 3 3 3 3 3 3 3 3 3 3 3 4 4 4 4 4 4 5 6
3 6 10 7 3 5 7 8 10 13 12 7 4 4 6 6 7 7 6 6 5 5 4 4 4 3 3 3 3 3 3 3 3 3 4 4 4 5 4 4 5 5 5 6
5 6 8 3 3 3 3 6 3 8 8 5 5 4 3 2 4 5 4 4 4 4 4 4 4 4 4 3 3 4 3 3 3 3 4 5 5 5 4 4 5 5 6 6
9 8 10 4 4 6 5 2 2 5 6 7 7 4 3 1 2 3 3 4 4 4 4 4 4 4 4 4 4 3 3 3 4 4 4 5 5 5 5 5 5 5 6 6
7 9 10 5 8 8 4 2 2 4 5 6 6 4 3 3 3 3 3 4 4 4 4 3 4 4 4 4 3 2 3 4 4 4 4 4 5 5 5 5 5 6 6 6
10 9 3 5 7 4 2 4 4 4 5 5 5 6 5 5 5 4 5 4 4 4 4 3 4 4 5 4 3 3 4 4 4 4 4 4 5 5 5 5 4 5 5 5
9 12 10 10 11 10 8 8 7 6 6 6 7 7 7 6 5 5 5 5 4 4 4 4 4 4 5 3 3 4 5 5 4 4 4 4 4 4 4 5 5 5 5 6
11 12 10 10 11 11 9 9 8 8 7 8 8 8 8 7 6 6 5 5 5 6 6 5 4 5 4 4 4 5 5 5 4 4 5 5 5 5 6 6 6 7 6 6
11 10 8 8 6 6 8 9 9 8 8 8 8 8 8 7 6 5 5 5 5 6 6 5 5 5 4 4 5 5 5 5 4 4 4 4 5 5 7 9 10 12 13 11
14 10 10 11 8 7 7 8 7 8 8 7 7 7 7 6 5 5 6 6 7 7 6 6 5 6 5 4 5 6 6 5 4 4 4 4 4 5 6 6 9 12 12 13
12 10 11 11 10 8 8 7 6 6 7 6 6 5 5 5 5 6 7 7 6 6 6 6 6 6 5 4 5 6 6 5 5 5 5 5 5 5 5 6 7 6 7 10
12 12 11 8 7 7 6 5 6 6 6 6 5 5 6 6 7 7 6 5 5 5 6 6 6 6 4 4 5 6 5 5 5 5 5 5 5 5 6 7 7 7 6 7
8 8 9 10 9 8 6 6 7 7 6 6 6 6 6 6 6 5 4 5 5 6 6 6 7 6 4 4 5 5 5 6 6 5 5 5 5 5 6 6 7 7 7 6
7 8 7 8 8 8 7 7 7 7 6 6 6 5 5 4 4 5 5 5 6 6 6 6 6 4 4 5 5 4 4 5 6 6 5 5 5 6 6 6 7 7 7 7
9 9 8 7 7 7 7 7 6 6 6 5 4 4 4 5 5 5 4 3 4 5 6 6 5 4 4 5 4 4 4 4 5 5 5 5 6 6 6 6 7 8 7 7
6 7 7 7 7 7 7 6 6 5 5 4 4 5 5 5 5 4 3 4 5 6 5 4 5 5 5 5 5 4 5 5 5 5 5 7 7 6 6 7 7 7 7 7
4 4 5 5 5 5 5 5 4 4 4 4 4 4 5 5 4 4 4 5 5 4 4 4 4 5 5 5 6 5 5 6 6 6 6 6 6 6 6 7 7 7 7 7
4 4 3 3 3 3 3 4 3 3 3 3 4 5 4 4 3 3 4 5 5 4 4 5 4 4 4 4 6 5 5 6 6 6 6 6 6 7 7 7 7 7 7 7
4 3 3 3 3 3 2 2 2 3 3 3 3 3 3 4 4 4 5 5 5 4 4 4 4 5 6 6 5 5 6 6 6 6 6 6 7 7 7 7 7 7 7 7
3 3 3 3 3 3 3 2 2 2 3 3 4 4 4 4 3 4 4 3 3 5 4 4 6 8 9 6 5 6 6 7 7 7 7 7 7 7 7 8 7 7 7 7
3 3 3 2 2 2 2 3 2 2 3 3 4 4 4 3 3 4 4 5 6 7 5 6 9 10 10 6 5 6 6 7 7 7 7 7 7 7 7 7 7 7 7 8
3 3 2 2 2 2 2 2 2 2 2 3 3 4 3 3 4 4 4 5 6 7 5 7 10 10 7 6 6 6 6 6 7 6 6 6 6 6 7 6 7 7 7 6
3 3 3 3 3 3 2 2 2 2 2 3 3 3 3 3 3 4 4 5 6 7 6 5 6 6 5 6 6 6 6 6 7 7 7 6 7 7 7 7 8 7 6 6
3 3 2 3 3 3 3 3 3 3 3 3 4 4 3 3 3 4 5 5 5 5 5 5 5 5 5 5 6 6 6 6 6 6 6 6 6 6 6 7 6 6 5 5
Wind_Direction
267 274 265 258 249 226 223 233 246 256 259 268 269 264 253 234 223 216 211 207 202 200 193 189 189 191 189 189 193 212 227 239 249 259 259 259 262 265 264 262 263 265 261 258
270 262 264 264 253 240 238 240 245 260 268 270 271 264 250 235 223 221 216 213 210 206 201 201 202 201 199 200 203 222 234 243 252 255 258 263 269 272 271 269 266 264 262 263
272 300 287 264 244 219 217 220 224 238 248 250 245 246 241 233 227 227 223 218 214 211 209 209 208 208 211 209 211 225 237 244 247 252 260 267 270 268 267 268 267 265 265 265
282 287 250 267 97 211 223 238 228 243 256 252 257 269 259 243 234 230 224 220 215 212 208 204 202 206 211 211 215 226 238 246 249 252 261 268 265 264 269 270 268 268 268 267
247 267 275 278 215 193 214 258 230 235 248 254 264 265 247 231 229 231 225 220 213 206 201 195 195 193 197 209 218 228 239 249 254 257 263 267 268 273 276 273 272 271 271 271
229 250 259 280 129 163 210 262 216 217 230 216 189 242 257 185 212 222 216 204 196 185 185 189 187 185 198 212 225 236 246 257 261 260 262 267 272 277 274 270 273 276 273 271
231 247 266 271 141 162 223 303 140 204 211 193 209 258 335 226 214 216 211 201 191 188 193 194 184 190 207 219 233 244 251 256 260 261 262 268 272 270 270 270 272 272 276 277
206 226 251 166 159 205 263 359 218 223 219 217 233 264 268 246 229 214 210 205 200 199 198 190 190 200 218 234 242 244 247 253 258 263 264 263 266 267 265 265 271 275 279 283
211 230 293 179 214 244 276 262 259 252 243 233 243 251 250 246 237 227 220 212 206 206 204 200 202 212 231 242 239 242 246 253 261 266 264 260 264 268 270 266 266 272 273 276
250 259 260 254 253 255 250 253 255 254 250 237 245 252 248 242 236 230 222 214 206 206 213 216 214 225 239 241 235 239 248 255 258 263 267 264 260 259 261 262 264 266 268 271
252 267 276 260 247 252 253 252 255 253 250 245 247 249 246 242 236 229 223 213 208 213 222 227 225 233 237 233 231 240 250 255 258 259 264 268 264 259 259 260 262 270 273 272
248 251 247 268 265 256 249 249 247 248 249 243 237 243 243 241 235 227 221 214 213 221 228 234 236 241 241 233 231 239 248 254 256 260 262 266 273 275 249 250 265 263 263 266
256 267 262 272 273 259 257 258 253 244 242 244 240 236 235 238 234 226 221 218 220 224 229 235 239 245 243 233 229 236 246 254 258 258 261 264 268 275 286 272 254 258 261 265
251 256 263 261 261 260 259 264 258 250 245 243 240 233 228 233 233 229 227 226 227 229 231 235 241 248 245 233 230 237 247 250 252 257 259 261 263 266 270 279 287 282 265 264
249 243 252 267 269 264 259 255 252 250 246 244 235 229 226 228 233 235 235 225 221 228 233 235 242 250 242 230 232 240 245 249 251 257 258 261 263 263 264 267 272 280 284 278
256 250 249 252 256 257 252 246 248 252 250 246 239 236 234 235 242 243 232 211 214 228 234 237 243 248 237 231 235 243 246 245 251 258 259 259 258 259 263 267 271 273 275 279
247 247 242 246 250 251 247 245 247 251 250 244 242 240 235 233 239 240 233 223 230 240 242 240 245 245 234 232 236 244 250 249 246 253 255 257 258 260 262 265 269 272 273 275
248 253 251 252 254 254 255 251 247 244 243 242 238 226 220 222 232 239 237 234 244 253 249 242 240 238 236 234 236 243 247 250 249 252 257 258 261 262 263 265 269 272 277 278
257 257 258 257 255 252 253 250 245 241 238 226 216 220 225 230 236 238 229 227 237 250 253 241 229 235 240 238 235 240 243 249 254 255 256 261 263 261 263 265 269 273 276 277
274 271 266 262 255 248 250 248 240 235 229 217 214 219 227 233 231 230 229 238 242 249 257 256 250 248 247 243 238 244 246 251 255 258 258 258 261 264 264 266 270 273 273 272
277 274 267 262 262 259 250 244 235 232 228 215 217 226 234 242 235 228 234 255 261 253 253 249 248 249 249 250 247 250 250 252 254 256 258 260 263 265 266 267 268 268 270 270
282 274 271 270 271 280 281 264 243 235 232 230 231 231 234 242 241 242 242 247 258 257 260 254 253 252 258 263 255 253 253 255 256 257 257 259 262 265 267 268 269 269 269 269
285 278 275 274 273 283 294 281 254 236 233 234 234 234 236 242 239 242 261 254 252 258 263 259 261 267 271 266 257 255 256 257 258 257 258 258 260 262 265 268 268 269 269 270
287 283 283 287 277 267 277 283 275 258 247 248 243 239 239 248 257 249 253 264 268 272 269 266 270 273 273 265 260 258 258 259 259 260 260 260 260 261 263 266 268 269 269 271
287 283 280 273 265 261 261 270 276 267 259 257 258 253 244 239 248 265 268 266 268 275 274 272 273 274 269 261 259 258 260 259 260 263 261 261 261 263 264 264 265 267 270 270
274 273 273 272 270 266 262 255 255 258 259 269 276 271 265 262 258 263 267 268 268 271 272 272 271 269 261 259 259 260 262 266 267 262 259 261 262 263 264 265 266 266 268 268
279 280 282 286 279 262 254 251 252 259 262 266 278 281 279 277 273 271 272 272 272 271 271 270 268 265 263 263 264 263 263 264 265 263 262 261 261 261 263 264 265 266 266 266